FENGYUN 1C DEB, 35180

Orbit data source: Space-Track

FENGYUN 1C DEB, 35180 is space debris in SSO originally from a launch on Mon, 10 May 1999 UTC launched from the Taiyaun Space Center, China (TSC). Fengyun 1C debris stems from the Chinese weather satellite Fengyun-1C, which was intentionally destroyed by a Chinese anti-satellite missile in 2007. This event dramatically increased the amount of space debris, with thousands of trackable fragments posing hazards to satellites and human spaceflight. The Fengyun 1C debris cloud has become a focal point in discussions about space sustainability and the need for international regulations to prevent the creation of new debris.

Loading next visibility...
Identifier
35180, 1999-025DNL
Orbit
SSO
Country
Flag of CNCN / PRC
Related business
Manufacturer
Unknown
Mission
Spacecraft
Bus & Motor
Unknown
Mass
Unknown
Launch date (UTC)
1999-05-10 (27 years ago)
Launch vehicle
Unknown
Launch site
Taiyaun Space Center, China (TSC)
Object type
Payload
Rocket body
Debris
Shape & HBR
Unknown shape, 0.1 m
Radar Cross Section
Small (<0.1 m²)

Expand to show TLE details & history
Last TLE update: 1 week ago

TLE from 1 week ago
0 FENGYUN 1C DEB
1 35180U 99025DNL 26200.69325247  .00005148  00000-0  21614-2 0  9994
2 35180  99.7486  12.0116 0484380 168.1224 193.1850 13.77695530 30460
Epoch: 2026-07-19T16:38Z
TLE epoch observation values (Epoch: 2026-07-19T16:38:17.013Z)
Latitude
0.00002°
Longitude
-175.04728°
Altitude
1,322.452 km
Speed
7.024 km/s
True Right ascension
00h 48m 02s
True Declination
0° 00' 00"
Sunlit
Object was in daylight at epoch
Visualization orbit readout
Latitude
Unknown
Longitude
Unknown
Altitude
Unknown
Speed
Unknown
Apparent Right ascension
Unknown
Apparent Declination
Unknown
Sunlit
N/A
Visualization observer readout
Local Sidereal Time
01:25:05
Azimuth
Unknown
Elevation
Unknown
Doppler factor
Unknown
Orbital elements
Apogee altitude
1,325.226 km
Perigee altitude
613.433 km
Semi-major axis
7,347.466 km
Eccentricity
0.04844
Inclination
99.7486°
RAAN
12.0116°
Arg. of periapsis
168.1224°
True anomaly
191.98965°
Mean anomaly
193.185°
Eccentric anomaly
192.58051°
Mean motion
3.44617 °/min
Orbital period
104.46 mins
BSTAR
0.0021614
Loading maneuver chart data...
Computing Atmospheric mass density...
Loading historical data...
Loading historical data...
Loading historical data...
Loading historical data...
Loading historical data...
Loading historical data...
Loading historical data...

Documentation

Showing up to 5 results
|